Wheeling, WV

10:16 PM EDT on April 22, 2018 (GMT -0400)
Wheeling-Ohio County

Weather History for KHLG - September, 2013

Change the Weather History Date:

Friday, September 20, 2013

  Actual Average Record
Temperature  
Mean Temperature 69 °F 63 °F  
Max Temperature 76 °F 73 °F 94 °F (1925)
Min Temperature 62 °F 53 °F 32 °F (1937)
Degree Days  
Heating Degree Days 0 4  
Month to date heating degree days 51 36  
Since 1 July heating degree days 67 47  
Cooling Degree Days 4    
Month to date cooling degree days 70  
Year to date cooling degree days 705  
Growing Degree Days 18 (Base 50)    
Moisture  
Dew Point 66 °F    
Average Humidity 91    
Maximum Humidity 100    
Minimum Humidity 82    
Precipitation  
Precipitation 0.15 in 0.07 in 4.50 in (1883)
Month to date precipitation 1.52 1.63  
Year to date precipitation 29.13  
Sea Level Pressure  
Sea Level Pressure 29.98 in    
Wind  
Wind Speed 7 mph (SSE)    
Max Wind Speed 13 mph    
Max Gust Speed 16 mph    
Visibility 4 miles    
Events Rain    
T = Trace of Precipitation, MM = Missing Value Source: NWS Daily Summary

Daily Weather History Graph

Daily Weather History Graph

Search for Another Location

Airport or City:

Astronomy

Sep. 20, 2013 Rise Set
Actual Time 7:08 AM EDT 7:22 PM EDT
Civil Twilight 6:41 AM EDT 7:49 PM EDT
Nautical Twilight 6:09 AM EDT 8:21 PM EDT
Astronomical Twilight 5:37 AM EDT 8:53 PM EDT
Moon 7:55 PM EDT (9/20) 8:21 AM EDT (9/20)
Length of Visible Light 13h 08m
Length of Day
12h 14m
Full, 98% of the Moon is Illuminated
Sep 20
Full
Sep 26
Last Quarter
Oct 4
New
Oct 11
First Quarter
Oct 18
Full

Hourly Weather History & Observations

Time (EDT) Temp. Dew Point Humidity Pressure Visibility Wind Dir Wind Speed Gust Speed Precip Events Conditions
12:40 AM 64.4 °F 62.6 °F 94% 30.07 in 5.0 mi South 3.5 mph - N/A   Mostly Cloudy
12:53 AM 62.1 °F 61.0 °F 96% 30.05 in 4.0 mi SSE 4.6 mph - N/A   Overcast
1:53 AM 64.9 °F 63.0 °F 93% 30.04 in 4.0 mi Calm Calm - N/A   Overcast
2:44 AM 64.4 °F 64.4 °F 100% 30.05 in 3.0 mi Calm Calm - N/A   Overcast
2:53 AM 64.9 °F 64.0 °F 97% 30.04 in 3.0 mi South 3.5 mph - N/A   Overcast
3:39 AM 64.4 °F 64.4 °F 100% 30.05 in 3.0 mi Calm Calm - N/A   Overcast
3:53 AM 64.0 °F 64.0 °F 100% 30.04 in 2.5 mi SE 3.5 mph - N/A   Overcast
4:14 AM 64.4 °F 64.4 °F 100% 30.04 in 2.5 mi SE 4.6 mph - N/A   Overcast
4:34 AM 64.4 °F 64.4 °F 100% 30.03 in 3.0 mi South 3.5 mph - N/A   Overcast
4:53 AM 64.9 °F 64.0 °F 97% 30.01 in 3.0 mi South 4.6 mph - N/A   Overcast
5:53 AM 64.9 °F 64.9 °F 100% 30.01 in 2.5 mi SSE 3.5 mph - N/A   Overcast
6:21 AM 64.4 °F 64.4 °F 100% 30.02 in 1.8 mi South 6.9 mph - N/A   Overcast
6:34 AM 64.4 °F 64.4 °F 100% 30.02 in 1.5 mi South 4.6 mph - N/A   Overcast
6:53 AM 64.9 °F 64.9 °F 100% 30.01 in 1.0 mi South 4.6 mph - N/A   Overcast
7:53 AM 64.9 °F 64.9 °F 100% 30.01 in 1.0 mi SSE 5.8 mph - N/A   Overcast
8:35 AM 66.2 °F 66.2 °F 100% 30.02 in 2.0 mi South 5.8 mph - 0.00 in Rain Light Rain
8:53 AM 66.0 °F 64.9 °F 96% 30.01 in 1.8 mi SE 5.8 mph - 0.01 in Rain Rain
9:05 AM 66.2 °F 66.2 °F 100% 30.02 in 1.0 mi SSE 5.8 mph - 0.06 in Rain Light Rain
9:38 AM 66.2 °F 66.2 °F 100% 30.01 in 3.0 mi SSE 4.6 mph - 0.12 in Rain Light Rain
9:53 AM 66.0 °F 66.0 °F 100% 30.02 in 4.0 mi Variable 3.5 mph - 0.12 in Rain Light Rain
10:05 AM 66.2 °F 66.2 °F 100% 30.02 in 1.5 mi South 4.6 mph - 0.01 in Rain Light Rain
10:53 AM 66.9 °F 66.9 °F 100% 30.01 in 1.5 mi South 8.1 mph - 0.02 in   Overcast
11:00 AM 68.0 °F 68.0 °F 100% 30.01 in 3.0 mi South 8.1 mph - 0.00 in Rain Light Rain
11:34 AM 69.8 °F 66.2 °F 88% 30.02 in 4.0 mi South 10.4 mph - 0.00 in   Overcast
11:53 AM 69.1 °F 66.9 °F 93% 30.01 in 6.0 mi South 9.2 mph - 0.00 in   Overcast
12:53 PM 71.1 °F 68.0 °F 90% 29.99 in 10.0 mi SSE 9.2 mph - N/A   Mostly Cloudy
1:45 PM 71.6 °F 68.0 °F 88% 29.98 in 8.0 mi South 8.1 mph - N/A   Overcast
1:53 PM 72.0 °F 68.0 °F 87% 29.97 in 7.0 mi South 9.2 mph - N/A   Mostly Cloudy
2:53 PM 73.0 °F 68.0 °F 84% 29.95 in 6.0 mi SSE 8.1 mph - N/A   Haze
3:32 PM 73.4 °F 68.0 °F 83% 29.95 in 5.0 mi South 5.8 mph - N/A   Haze
3:53 PM 73.9 °F 68.0 °F 82% 29.92 in 5.0 mi SSE 9.2 mph - N/A   Haze
4:41 PM 75.2 °F 69.8 °F 83% 29.91 in 6.0 mi SSE 8.1 mph - N/A   Haze
4:53 PM 75.9 °F 69.1 °F 79% 29.89 in 6.0 mi South 6.9 mph - N/A   Haze
5:53 PM 75.0 °F 69.1 °F 82% 29.89 in 8.0 mi SSE 8.1 mph - N/A   Partly Cloudy
6:53 PM 73.0 °F 68.0 °F 84% 29.87 in 8.0 mi SSE 6.9 mph - N/A   Clear
7:53 PM 71.1 °F 68.0 °F 90% 29.88 in 8.0 mi SSE 8.1 mph - N/A   Clear
8:53 PM 70.0 °F 68.0 °F 93% 29.88 in 7.0 mi South 6.9 mph - N/A   Clear
9:53 PM 70.0 °F 68.0 °F 93% 29.87 in 7.0 mi SSE 6.9 mph - N/A   Clear
10:53 PM 69.1 °F 68.0 °F 96% 29.86 in 7.0 mi SSE 6.9 mph - N/A   Clear
11:53 PM 69.1 °F 66.9 °F 93% 29.84 in 8.0 mi South 8.1 mph - N/A   Clear